Location: *
(1.3500°S, 147.5000°W)
Time: 13:36:39
(UTC+00:00)

OAO 2 Rocket - Pass Details

Date: 07 April 2020
Orbit: 676 x 746 km, 35.0° (Epoch: 04 June)

Event Time Altitude Azimuth Distance (km) Brightness Sun altitude
Rises 04:43:51 0° 318° (NW) 3,118 7.5 -13.0°
Reaches altitude 10° 04:46:23 10° 324° (NW) 2,188 6.5 -13.6°
Maximum altitude 04:51:19 47° 37° (NE) 931 3.7 -14.9°
Enters shadow 04:53:54 25° 97° (E) 1,391 4.2 -15.5°
